owner,sensor,date,latitude,longitude,vertical_datum,direction_of_sea_water_velocity,sea_water_speed,upward_sea_water_velocity,qcFlag 
TABS,ioos:station:wmo:42049:1,2015-07-01T00:00:00Z,28.3507,-96.0058,2.0,56.44796198,65.66005254,-99999.0,'11111222,11111222,99999999' 
TABS,ioos:station:wmo:42049:1,2015-07-01T00:30:00Z,28.3507,-96.0058,2.0,60.51905581,59.25202106,-99999.0,'11111222,11111222,99999999' 
TABS,ioos:station:wmo:42049:1,2015-07-01T01:00:00Z,28.3507,-96.0058,2.0,61.801945,56.33601779,-99999.0,'11111222,11111222,99999999' 
TABS,ioos:station:wmo:42049:1,2015-07-01T01:30:00Z,28.3507,-96.0058,2.0,64.40966247,50.21593572,-99999.0,'11111222,11111222,99999999' 
TABS,ioos:station:wmo:42049:1,2015-07-01T02:00:00Z,28.3507,-96.0058,2.0,65.99769153,42.3084696,-99999.0,'11111222,11111222,99999999' 
TABS,ioos:station:wmo:42049:1,2015-07-01T02:30:00Z,28.3507,-96.0058,2.0,71.52242278,29.72225597,-99999.0,'11111222,11111222,99999999' 
TABS,ioos:station:wmo:42049:1,2015-07-01T03:00:00Z,28.3507,-96.0058,2.0,62.61365462,30.26158125,-99999.0,'11111222,11111222,99999999' 
TABS,ioos:station:wmo:42049:1,2015-07-01T03:30:00Z,28.3507,-96.0058,2.0,52.37192957,39.29344093,-99999.0,'11111222,11111222,99999999' 
TABS,ioos:station:wmo:42049:1,2015-07-01T04:00:00Z,28.3507,-96.0058,2.0,48.0846629,39.15973953,-99999.0,'11111222,11111222,99999999' 
TABS,ioos:station:wmo:42049:1,2015-07-01T04:30:00Z,28.3507,-96.0058,2.0,37.57074907,34.34256834,-99999.0,'11111222,11111222,99999999' 
TABS,ioos:station:wmo:42049:1,2015-07-01T05:00:00Z,28.3507,-96.0058,2.0,33.48356974,32.30040247,-99999.0,'11111222,11111222,99999999' 
TABS,ioos:station:wmo:42049:1,2015-07-01T13:30:00Z,28.3507,-96.0058,2.0,58.33750395,40.21597941,-99999.0,'11111222,11111222,99999999' 
TABS,ioos:station:wmo:42049:1,2015-07-01T14:00:00Z,28.3507,-96.0058,2.0,56.18786167,42.93111925,-99999.0,'11111222,11111222,99999999' 
TABS,ioos:station:wmo:42049:1,2015-07-01T14:30:00Z,28.3507,-96.0058,2.0,61.4652362,41.11427976,-99999.0,'11111222,11111222,99999999' 
TABS,ioos:station:wmo:42049:1,2015-07-01T15:00:00Z,28.3507,-96.0058,2.0,56.82789309,34.98082332,-99999.0,'11111222,11111222,99999999' 
TABS,ioos:station:wmo:42049:1,2015-07-01T15:30:00Z,28.3507,-96.0058,2.0,57.74501956,27.24432418,-99999.0,'11111222,11111222,99999999' 
TABS,ioos:station:wmo:42049:1,2015-07-01T16:00:00Z,28.3507,-96.0058,2.0,68.80551474,22.79166734,-99999.0,'11111222,11111222,99999999' 
TABS,ioos:station:wmo:42049:1,2015-07-01T16:30:00Z,28.3507,-96.0058,2.0,66.76161976,18.88186961,-99999.0,'11111222,11111222,99999999' 
TABS,ioos:station:wmo:42049:1,2015-07-01T17:00:00Z,28.3507,-96.0058,2.0,57.15416674,21.46090632,-99999.0,'11111222,11111222,99999999' 
TABS,ioos:station:wmo:42049:1,2015-07-01T17:30:00Z,28.3507,-96.0058,2.0,50.93933591,17.63088767,-99999.0,'11111222,11111222,99999999' 
TABS,ioos:station:wmo:42049:1,2015-07-01T18:00:00Z,28.3507,-96.0058,2.0,47.96256096,22.84887087,-99999.0,'11111222,11111222,99999999' 
TABS,ioos:station:wmo:42049:1,2015-07-01T18:30:00Z,28.3507,-96.0058,2.0,75.84071913,32.74481028,-99999.0,'11111222,11111222,99999999' 
TABS,ioos:station:wmo:42049:1,2015-07-01T19:00:00Z,28.3507,-96.0058,2.0,78.00667932,35.51523617,-99999.0,'11111222,11111222,99999999' 
TABS,ioos:station:wmo:42049:1,2015-07-01T19:30:00Z,28.3507,-96.0058,2.0,68.46784617,35.17479922,-99999.0,'11111222,11111222,99999999' 
TABS,ioos:station:wmo:42049:1,2015-07-01T20:00:00Z,28.3507,-96.0058,2.0,70.1693429,43.3613676,-99999.0,'11111222,11111222,99999999' 
TABS,ioos:station:wmo:42049:1,2015-07-01T20:30:00Z,28.3507,-96.0058,2.0,84.35849458,36.31589872,-99999.0,'11111222,11111222,99999999' 
TABS,ioos:station:wmo:42049:1,2015-07-01T21:00:00Z,28.3507,-96.0058,2.0,94.33935455,46.65373833,-99999.0,'11111222,11111222,99999999' 
TABS,ioos:station:wmo:42049:1,2015-07-01T22:30:00Z,28.3507,-96.0058,2.0,130.0265598,43.80046233,-99999.0,'11111222,11111222,99999999' 
TABS,ioos:station:wmo:42049:1,2015-07-01T23:00:00Z,28.3507,-96.0058,2.0,139.3530119,44.9957298,-99999.0,'11111222,11111222,99999999' 
TABS,ioos:station:wmo:42049:1,2015-07-01T23:30:00Z,28.3507,-96.0058,2.0,143.6393845,44.76576929,-99999.0,'11111222,11111222,99999999' 
TABS,ioos:station:wmo:42049:1,2015-07-02T00:00:00Z,28.3507,-96.0058,2.0,143.5867241,42.14933926,-99999.0,'11111222,11111222,99999999' 
TABS,ioos:station:wmo:42049:1,2015-07-02T00:30:00Z,28.3507,-96.0058,2.0,148.6002426,39.00162176,-99999.0,'11111222,11111222,99999999' 
TABS,ioos:station:wmo:42049:1,2015-07-02T01:00:00Z,28.3507,-96.0058,2.0,151.6618683,39.60630758,-99999.0,'11111222,11111222,99999999' 
TABS,ioos:station:wmo:42049:1,2015-07-02T01:30:00Z,28.3507,-96.0058,2.0,151.4333867,35.34249001,-99999.0,'11111222,11111222,99999999' 
TABS,ioos:station:wmo:42049:1,2015-07-02T02:00:00Z,28.3507,-96.0058,2.0,155.3446399,37.03644286,-99999.0,'11111222,11111222,99999999' 
TABS,ioos:station:wmo:42049:1,2015-07-02T10:30:00Z,28.3507,-96.0058,2.0,342.7745319,11.98770203,-99999.0,'11111222,11111222,99999999' 
TABS,ioos:station:wmo:42049:1,2015-07-02T11:00:00Z,28.3507,-96.0058,2.0,352.3143462,16.59912347,-99999.0,'11111222,11111222,99999999' 
TABS,ioos:station:wmo:42049:1,2015-07-03T00:30:00Z,28.3507,-96.0058,2.0,62.55230517,87.66874072,-99999.0,'11111222,11111222,99999999' 
TABS,ioos:station:wmo:42049:1,2015-07-03T01:00:00Z,28.3507,-96.0058,2.0,64.92963031,84.69976682,-99999.0,'11111222,11111222,99999999' 
TABS,ioos:station:wmo:42049:1,2015-07-03T10:30:00Z,28.3507,-96.0058,2.0,74.22492126,53.15190495,-99999.0,'11111222,11111222,99999999' 
TABS,ioos:station:wmo:42049:1,2015-07-03T11:00:00Z,28.3507,-96.0058,2.0,77.03263588,47.32693525,-99999.0,'11111222,11111222,99999999' 
TABS,ioos:station:wmo:42049:1,2015-07-03T11:30:00Z,28.3507,-96.0058,2.0,76.30502245,43.16725611,-99999.0,'11111222,11111222,99999999' 
TABS,ioos:station:wmo:42049:1,2015-07-03T12:00:00Z,28.3507,-96.0058,2.0,76.81806227,40.34300931,-99999.0,'11111222,11111222,99999999' 
TABS,ioos:station:wmo:42049:1,2015-07-03T16:30:00Z,28.3507,-96.0058,2.0,42.94173969,36.81452023,-99999.0,'11111222,11111222,99999999' 
TABS,ioos:station:wmo:42049:1,2015-07-03T17:00:00Z,28.3507,-96.0058,2.0,37.22498308,38.41673724,-99999.0,'11111222,11111222,99999999' 
TABS,ioos:station:wmo:42049:1,2015-07-03T17:30:00Z,28.3507,-96.0058,2.0,36.02535826,39.34427531,-99999.0,'11111222,11111222,99999999' 
TABS,ioos:station:wmo:42049:1,2015-07-03T18:00:00Z,28.3507,-96.0058,2.0,30.62872494,41.33701126,-99999.0,'11111222,11111222,99999999' 
TABS,ioos:station:wmo:42049:1,2015-07-04T03:30:00Z,28.3507,-96.0058,2.0,39.87724917,74.83505395,-99999.0,'11111222,11111222,99999999' 
TABS,ioos:station:wmo:42049:1,2015-07-04T04:00:00Z,28.3507,-96.0058,2.0,38.86972855,76.34449358,-99999.0,'11111222,11111222,99999999' 
TABS,ioos:station:wmo:42049:1,2015-07-04T05:30:00Z,28.3507,-96.0058,2.0,40.78436389,70.31402776,-99999.0,'11111222,11111222,99999999' 
TABS,ioos:station:wmo:42049:1,2015-07-04T06:00:00Z,28.3507,-96.0058,2.0,37.94621598,62.1869697,-99999.0,'11111222,11111222,99999999' 
TABS,ioos:station:wmo:42049:1,2015-07-04T12:30:00Z,28.3507,-96.0058,2.0,13.63119922,37.7225092,-99999.0,'11111222,11111222,99999999' 
TABS,ioos:station:wmo:42049:1,2015-07-04T13:00:00Z,28.3507,-96.0058,2.0,10.99999423,37.68230619,-99999.0,'11111222,11111222,99999999' 
TABS,ioos:station:wmo:42049:1,2015-07-04T13:30:00Z,28.3507,-96.0058,2.0,17.49739121,36.51971112,-99999.0,'11111222,11111222,99999999' 
TABS,ioos:station:wmo:42049:1,2015-07-04T14:00:00Z,28.3507,-96.0058,2.0,11.94885706,38.35093219,-99999.0,'11111222,11111222,99999999' 
TABS,ioos:station:wmo:42049:1,2015-07-04T15:30:00Z,28.3507,-96.0058,2.0,15.00871243,42.59296303,-99999.0,'11111222,11111222,99999999' 
TABS,ioos:station:wmo:42049:1,2015-07-04T16:00:00Z,28.3507,-96.0058,2.0,12.77703392,39.83639793,-99999.0,'11111222,11111222,99999999' 
TABS,ioos:station:wmo:42049:1,2015-07-04T17:30:00Z,28.3507,-96.0058,2.0,17.01973656,46.6008927,-99999.0,'11111222,11111222,99999999' 
TABS,ioos:station:wmo:42049:1,2015-07-04T18:00:00Z,28.3507,-96.0058,2.0,17.03545315,46.21782881,-99999.0,'11111222,11111222,99999999' 
TABS,ioos:station:wmo:42049:1,2015-07-05T00:30:00Z,28.3507,-96.0058,2.0,59.61457655,21.41097382,-99999.0,'11111222,11111222,99999999' 
TABS,ioos:station:wmo:42049:1,2015-07-05T01:00:00Z,28.3507,-96.0058,2.0,60.07661565,24.27619616,-99999.0,'11111222,11111222,99999999' 
TABS,ioos:station:wmo:42049:1,2015-07-05T02:30:00Z,28.3507,-96.0058,2.0,65.28447998,22.17098329,-99999.0,'11111222,11111222,99999999' 
TABS,ioos:station:wmo:42049:1,2015-07-05T03:00:00Z,28.3507,-96.0058,2.0,63.7668353,23.16605275,-99999.0,'11111222,11111222,99999999' 
TABS,ioos:station:wmo:42049:1,2015-07-05T03:30:00Z,28.3507,-96.0058,2.0,63.10283279,22.37,-99999.0,'11111222,11111222,99999999' 
TABS,ioos:station:wmo:42049:1,2015-07-05T04:00:00Z,28.3507,-96.0058,2.0,68.25775994,21.59637933,-99999.0,'11111222,11111222,99999999' 
TABS,ioos:station:wmo:42049:1,2015-07-05T04:30:00Z,28.3507,-96.0058,2.0,75.29579134,17.05868987,-99999.0,'11111222,11111222,99999999' 
TABS,ioos:station:wmo:42049:1,2015-07-05T05:00:00Z,28.3507,-96.0058,2.0,82.47700824,13.21373906,-99999.0,'11111222,11111222,99999999' 
TABS,ioos:station:wmo:42049:1,2015-07-05T09:30:00Z,28.3507,-96.0058,2.0,54.16367532,20.73537316,-99999.0,'11111222,11111222,99999999' 
TABS,ioos:station:wmo:42049:1,2015-07-05T10:00:00Z,28.3507,-96.0058,2.0,54.88737352,21.00187611,-99999.0,'11111222,11111222,99999999' 
TABS,ioos:station:wmo:42049:1,2015-07-05T10:30:00Z,28.3507,-96.0058,2.0,58.79046886,15.18805452,-99999.0,'11111222,11111222,99999999' 
TABS,ioos:station:wmo:42049:1,2015-07-05T11:00:00Z,28.3507,-96.0058,2.0,56.18044503,23.30301483,-99999.0,'11111222,11111222,99999999' 
TABS,ioos:station:wmo:42049:1,2015-07-05T11:30:00Z,28.3507,-96.0058,2.0,70.75702875,22.4227786,-99999.0,'11111222,11111222,99999999' 
TABS,ioos:station:wmo:42049:1,2015-07-05T12:00:00Z,28.3507,-96.0058,2.0,64.26503811,25.93216536,-99999.0,'11111222,11111222,99999999' 
TABS,ioos:station:wmo:42049:1,2015-07-05T15:30:00Z,28.3507,-96.0058,2.0,64.48213913,20.31136135,-99999.0,'11111222,11111222,99999999' 
TABS,ioos:station:wmo:42049:1,2015-07-05T16:00:00Z,28.3507,-96.0058,2.0,64.59788043,23.35830473,-99999.0,'11111222,11111222,99999999' 
TABS,ioos:station:wmo:42049:1,2015-07-05T21:30:00Z,28.3507,-96.0058,2.0,62.66675934,42.35940746,-99999.0,'11111222,11111222,99999999' 
TABS,ioos:station:wmo:42049:1,2015-07-05T22:00:00Z,28.3507,-96.0058,2.0,62.19991253,42.32518399,-99999.0,'11111222,11111222,99999999' 
TABS,ioos:station:wmo:42049:1,2015-07-05T23:30:00Z,28.3507,-96.0058,2.0,55.60393869,42.53764098,-99999.0,'11111222,11111222,99999999' 
TABS,ioos:station:wmo:42049:1,2015-07-06T01:30:00Z,28.3507,-96.0058,2.0,55.32424449,41.27025563,-99999.0,'11111222,11111222,99999999' 
TABS,ioos:station:wmo:42049:1,2015-07-06T02:00:00Z,28.3507,-96.0058,2.0,64.35009461,39.20327155,-99999.0,'11111222,11111222,99999999' 
TABS,ioos:station:wmo:42049:1,2015-07-06T02:30:00Z,28.3507,-96.0058,2.0,63.21749312,43.58575111,-99999.0,'11111222,11111222,99999999' 
TABS,ioos:station:wmo:42049:1,2015-07-06T03:00:00Z,28.3507,-96.0058,2.0,72.44139589,38.25222216,-99999.0,'11111222,11111222,99999999' 
TABS,ioos:station:wmo:42049:1,2015-07-06T03:30:00Z,28.3507,-96.0058,2.0,68.9910089,36.12119738,-99999.0,'11111222,11111222,99999999' 
TABS,ioos:station:wmo:42049:1,2015-07-06T04:00:00Z,28.3507,-96.0058,2.0,65.26213038,35.48655238,-99999.0,'11111222,11111222,99999999' 
TABS,ioos:station:wmo:42049:1,2015-07-06T05:30:00Z,28.3507,-96.0058,2.0,67.14833899,32.31641843,-99999.0,'11111222,11111222,99999999' 
TABS,ioos:station:wmo:42049:1,2015-07-06T06:00:00Z,28.3507,-96.0058,2.0,66.56494344,32.76254721,-99999.0,'11111222,11111222,99999999' 
TABS,ioos:station:wmo:42049:1,2015-07-06T06:30:00Z,28.3507,-96.0058,2.0,54.63389941,28.35176361,-99999.0,'11111222,11111222,99999999' 
TABS,ioos:station:wmo:42049:1,2015-07-06T07:00:00Z,28.3507,-96.0058,2.0,57.02206197,37.71697894,-99999.0,'11111222,11111222,99999999' 
TABS,ioos:station:wmo:42049:1,2015-07-06T07:30:00Z,28.3507,-96.0058,2.0,62.95317819,40.94832475,-99999.0,'11111222,11111222,99999999' 
TABS,ioos:station:wmo:42049:1,2015-07-06T08:00:00Z,28.3507,-96.0058,2.0,62.2354472,39.51998229,-99999.0,'11111222,11111222,99999999' 
TABS,ioos:station:wmo:42049:1,2015-07-06T09:30:00Z,28.3507,-96.0058,2.0,66.78118329,44.51550966,-99999.0,'11111222,11111222,99999999' 
TABS,ioos:station:wmo:42049:1,2015-07-06T10:00:00Z,28.3507,-96.0058,2.0,68.83102866,44.41731644,-99999.0,'11111222,11111222,99999999' 
TABS,ioos:station:wmo:42049:1,2015-07-06T10:30:00Z,28.3507,-96.0058,2.0,62.66463802,52.22137972,-99999.0,'11111222,11111222,99999999' 
TABS,ioos:station:wmo:42049:1,2015-07-06T11:00:00Z,28.3507,-96.0058,2.0,66.8799178,49.86497769,-99999.0,'11111222,11111222,99999999' 
TABS,ioos:station:wmo:42049:1,2015-07-06T12:30:00Z,28.3507,-96.0058,2.0,65.83083059,59.37478421,-99999.0,'11111222,11111222,99999999' 
TABS,ioos:station:wmo:42049:1,2015-07-06T17:30:00Z,28.3507,-96.0058,2.0,67.5750756,56.98956045,-99999.0,'11111222,11111222,99999999' 
TABS,ioos:station:wmo:42049:1,2015-07-06T18:00:00Z,28.3507,-96.0058,2.0,68.9792647,56.56433594,-99999.0,'11111222,11111222,99999999' 
TABS,ioos:station:wmo:42049:1,2015-07-06T18:30:00Z,28.3507,-96.0058,2.0,64.06079321,59.782607,-99999.0,'11111222,11111222,99999999' 
TABS,ioos:station:wmo:42049:1,2015-07-06T19:00:00Z,28.3507,-96.0058,2.0,61.37080968,65.68015987,-99999.0,'11111222,11111222,99999999' 
TABS,ioos:station:wmo:42049:1,2015-07-06T23:30:00Z,28.3507,-96.0058,2.0,67.46072881,45.41927564,-99999.0,'11111222,11111222,99999999' 
TABS,ioos:station:wmo:42049:1,2015-07-07T00:00:00Z,28.3507,-96.0058,2.0,65.54701505,46.96249674,-99999.0,'11111222,11111222,99999999' 
TABS,ioos:station:wmo:42049:1,2015-07-07T07:30:00Z,28.3507,-96.0058,2.0,48.45451822,56.79902288,-99999.0,'11111222,11111222,99999999' 
TABS,ioos:station:wmo:42049:1,2015-07-07T08:00:00Z,28.3507,-96.0058,2.0,46.41118676,55.41862232,-99999.0,'11111222,11111222,99999999' 
TABS,ioos:station:wmo:42049:1,2015-07-07T14:30:00Z,28.3507,-96.0058,2.0,50.76100344,47.26840488,-99999.0,'11111222,11111222,99999999' 
TABS,ioos:station:wmo:42049:1,2015-07-07T15:00:00Z,28.3507,-96.0058,2.0,47.34997597,48.63327462,-99999.0,'11111222,11111222,99999999' 
TABS,ioos:station:wmo:42049:1,2015-07-07T23:30:00Z,28.3507,-96.0058,2.0,44.61953122,33.00140149,-99999.0,'11111222,11111222,99999999' 
TABS,ioos:station:wmo:42049:1,2015-07-08T00:00:00Z,28.3507,-96.0058,2.0,40.07211213,31.11457858,-99999.0,'11111222,11111222,99999999' 
TABS,ioos:station:wmo:42049:1,2015-07-08T00:30:00Z,28.3507,-96.0058,2.0,38.62603833,29.04363958,-99999.0,'11111222,11111222,99999999' 
TABS,ioos:station:wmo:42049:1,2015-07-08T01:00:00Z,28.3507,-96.0058,2.0,47.24329125,28.00167316,-99999.0,'11111222,11111222,99999999' 
TABS,ioos:station:wmo:42049:1,2015-07-08T05:30:00Z,28.3507,-96.0058,2.0,29.31151991,25.57421358,-99999.0,'11111222,11111222,99999999' 
TABS,ioos:station:wmo:42049:1,2015-07-08T06:00:00Z,28.3507,-96.0058,2.0,26.92233605,25.11153122,-99999.0,'11111222,11111222,99999999' 
TABS,ioos:station:wmo:42049:1,2015-07-08T10:30:00Z,28.3507,-96.0058,2.0,25.15776116,37.14335068,-99999.0,'11111222,11111222,99999999' 
TABS,ioos:station:wmo:42049:1,2015-07-08T11:00:00Z,28.3507,-96.0058,2.0,21.43021034,31.22904097,-99999.0,'11111222,11111222,99999999' 
TABS,ioos:station:wmo:42049:1,2015-07-08T12:30:00Z,28.3507,-96.0058,2.0,19.80540653,44.03466021,-99999.0,'11111222,11111222,99999999' 
TABS,ioos:station:wmo:42049:1,2015-07-08T13:00:00Z,28.3507,-96.0058,2.0,17.34413334,37.36908482,-99999.0,'11111222,11111222,99999999' 
TABS,ioos:station:wmo:42049:1,2015-07-08T13:30:00Z,28.3507,-96.0058,2.0,21.34975903,38.62026023,-99999.0,'11111222,11111222,99999999' 
TABS,ioos:station:wmo:42049:1,2015-07-08T14:00:00Z,28.3507,-96.0058,2.0,23.13490522,35.35296593,-99999.0,'11111222,11111222,99999999' 
TABS,ioos:station:wmo:42049:1,2015-07-08T21:30:00Z,28.3507,-96.0058,2.0,26.73158028,16.94052242,-99999.0,'11111222,11111222,99999999' 
TABS,ioos:station:wmo:42049:1,2015-07-08T22:00:00Z,28.3507,-96.0058,2.0,30.31510931,16.20594027,-99999.0,'11111222,11111222,99999999' 
TABS,ioos:station:wmo:42049:1,2015-07-09T02:30:00Z,28.3507,-96.0058,2.0,342.510556,17.63526013,-99999.0,'11111222,11111222,99999999' 
TABS,ioos:station:wmo:42049:1,2015-07-09T10:30:00Z,28.3507,-96.0058,2.0,2.982377539,16.72264632,-99999.0,'11111222,11111222,99999999' 
TABS,ioos:station:wmo:42049:1,2015-07-09T11:00:00Z,28.3507,-96.0058,2.0,1.384325413,12.83374458,-99999.0,'11111222,11111222,99999999' 
TABS,ioos:station:wmo:42049:1,2015-07-09T11:30:00Z,28.3507,-96.0058,2.0,21.21686706,14.92139739,-99999.0,'11111222,11111222,99999999' 
TABS,ioos:station:wmo:42049:1,2015-07-09T21:30:00Z,28.3507,-96.0058,2.0,125.0856199,2.505214562,-99999.0,'11133222,11111222,99999999' 
TABS,ioos:station:wmo:42049:1,2015-07-09T22:00:00Z,28.3507,-96.0058,2.0,116.5649891,1.341640786,-99999.0,'11133222,11111222,99999999' 
TABS,ioos:station:wmo:42049:1,2015-07-09T22:30:00Z,28.3507,-96.0058,2.0,71.32334194,1.498932954,-99999.0,'11133222,11111222,99999999' 
TABS,ioos:station:wmo:42049:1,2015-07-09T23:00:00Z,28.3507,-96.0058,2.0,343.3010053,0.522015325,-99999.0,'11133222,11111222,99999999' 
TABS,ioos:station:wmo:42049:1,2015-07-10T04:30:00Z,28.3507,-96.0058,2.0,300.4587807,12.25062039,-99999.0,'11111222,11111222,99999999' 
TABS,ioos:station:wmo:42049:1,2015-07-10T05:00:00Z,28.3507,-96.0058,2.0,312.7010642,14.98151194,-99999.0,'11111222,11111222,99999999' 
TABS,ioos:station:wmo:42049:1,2015-07-10T09:30:00Z,28.3507,-96.0058,2.0,9.592169354,13.80297432,-99999.0,'11111222,11111222,99999999' 
TABS,ioos:station:wmo:42049:1,2015-07-10T10:00:00Z,28.3507,-96.0058,2.0,11.8941292,11.15958781,-99999.0,'11111222,11111222,99999999' 
TABS,ioos:station:wmo:42049:1,2015-07-10T11:30:00Z,28.3507,-96.0058,2.0,32.20609426,8.781076244,-99999.0,'11133222,11111222,99999999' 
TABS,ioos:station:wmo:42049:1,2015-07-10T12:00:00Z,28.3507,-96.0058,2.0,40.38818971,10.20122542,-99999.0,'11111222,11111222,99999999' 
TABS,ioos:station:wmo:42049:1,2015-07-10T15:30:00Z,28.3507,-96.0058,2.0,92.4047034,7.6267162,-99999.0,'11133222,11111222,99999999' 
TABS,ioos:station:wmo:42049:1,2015-07-10T16:00:00Z,28.3507,-96.0058,2.0,109.9239068,4.137656341,-99999.0,'11133222,11111222,99999999' 
TABS,ioos:station:wmo:42049:1,2015-07-10T17:30:00Z,28.3507,-96.0058,2.0,180.1569788,7.290027435,-99999.0,'11133222,11111222,99999999' 
TABS,ioos:station:wmo:42049:1,2015-07-10T18:00:00Z,28.3507,-96.0058,2.0,185.3443826,7.944539005,-99999.0,'11133222,11111222,99999999' 
TABS,ioos:station:wmo:42049:1,2015-07-10T21:30:00Z,28.3507,-96.0058,2.0,240.4036697,13.36354743,-99999.0,'11111222,11111222,99999999' 
TABS,ioos:station:wmo:42049:1,2015-07-10T22:00:00Z,28.3507,-96.0058,2.0,245.1857783,16.53673789,-99999.0,'11111222,11111222,99999999' 
TABS,ioos:station:wmo:42049:1,2015-07-10T22:30:00Z,28.3507,-96.0058,2.0,247.7464582,17.42804923,-99999.0,'11111222,11111222,99999999' 
TABS,ioos:station:wmo:42049:1,2015-07-10T23:00:00Z,28.3507,-96.0058,2.0,263.8384061,22.26862591,-99999.0,'11111222,11111222,99999999' 
TABS,ioos:station:wmo:42049:1,2015-07-10T23:30:00Z,28.3507,-96.0058,2.0,264.3057999,20.36045186,-99999.0,'11111222,11111222,99999999' 
TABS,ioos:station:wmo:42049:1,2015-07-11T00:00:00Z,28.3507,-96.0058,2.0,258.128027,19.00652783,-99999.0,'11111222,11111222,99999999' 
TABS,ioos:station:wmo:42049:1,2015-07-11T00:30:00Z,28.3507,-96.0058,2.0,265.7691984,14.09841126,-99999.0,'11111222,11111222,99999999' 
TABS,ioos:station:wmo:42049:1,2015-07-11T01:00:00Z,28.3507,-96.0058,2.0,292.2246682,15.59883329,-99999.0,'11111222,11111222,99999999' 
TABS,ioos:station:wmo:42049:1,2015-07-11T01:30:00Z,28.3507,-96.0058,2.0,327.9989227,30.21099965,-99999.0,'11111222,11111222,99999999' 
TABS,ioos:station:wmo:42049:1,2015-07-11T02:00:00Z,28.3507,-96.0058,2.0,337.7238055,11.42251286,-99999.0,'11111222,11111222,99999999' 
TABS,ioos:station:wmo:42049:1,2015-07-11T02:30:00Z,28.3507,-96.0058,2.0,326.1764411,29.69595595,-99999.0,'11111222,11111222,99999999' 
TABS,ioos:station:wmo:42049:1,2015-07-11T09:30:00Z,28.3507,-96.0058,2.0,329.21562,20.3003867,-99999.0,'11111222,11111222,99999999' 
TABS,ioos:station:wmo:42049:1,2015-07-11T10:00:00Z,28.3507,-96.0058,2.0,332.502883,15.94080299,-99999.0,'11111222,11111222,99999999' 
TABS,ioos:station:wmo:42049:1,2015-07-11T17:30:00Z,28.3507,-96.0058,2.0,221.8075961,12.8256033,-99999.0,'11111222,11111222,99999999' 
TABS,ioos:station:wmo:42049:1,2015-07-11T18:00:00Z,28.3507,-96.0058,2.0,213.1055749,15.23285922,-99999.0,'11111222,11111222,99999999' 
TABS,ioos:station:wmo:42049:1,2015-07-11T18:30:00Z,28.3507,-96.0058,2.0,217.1765047,17.92225711,-99999.0,'11111222,11111222,99999999' 
TABS,ioos:station:wmo:42049:1,2015-07-11T19:00:00Z,28.3507,-96.0058,2.0,220.8320188,18.2917249,-99999.0,'11111222,11111222,99999999' 
TABS,ioos:station:wmo:42049:1,2015-07-11T19:30:00Z,28.3507,-96.0058,2.0,217.9702304,20.51178442,-99999.0,'11111222,11111222,99999999' 
TABS,ioos:station:wmo:42049:1,2015-07-11T20:00:00Z,28.3507,-96.0058,2.0,219.0073653,22.89393369,-99999.0,'11111222,11111222,99999999' 
TABS,ioos:station:wmo:42049:1,2015-07-11T20:30:00Z,28.3507,-96.0058,2.0,219.7037857,28.19248481,-99999.0,'11111222,11111222,99999999' 
TABS,ioos:station:wmo:42049:1,2015-07-11T21:00:00Z,28.3507,-96.0058,2.0,262.6649804,23.73420527,-99999.0,'11111222,11111222,99999999' 
TABS,ioos:station:wmo:42049:1,2015-07-12T21:30:00Z,28.3507,-96.0058,2.0,253.4260932,13.53220233,-99999.0,'11111222,11111222,99999999' 
TABS,ioos:station:wmo:42049:1,2015-07-12T22:00:00Z,28.3507,-96.0058,2.0,255.4266949,17.08980983,-99999.0,'11111222,11111222,99999999' 
TABS,ioos:station:wmo:42049:1,2015-07-12T22:30:00Z,28.3507,-96.0058,2.0,257.18616,16.59321548,-99999.0,'11111222,11111222,99999999' 
TABS,ioos:station:wmo:42049:1,2015-07-12T23:00:00Z,28.3507,-96.0058,2.0,255.1870522,15.21565641,-99999.0,'11111222,11111222,99999999' 
TABS,ioos:station:wmo:42049:1,2015-07-12T23:30:00Z,28.3507,-96.0058,2.0,255.7261753,15.81830901,-99999.0,'11111222,11111222,99999999' 
TABS,ioos:station:wmo:42049:1,2015-07-13T00:00:00Z,28.3507,-96.0058,2.0,265.374084,15.50048386,-99999.0,'11111222,11111222,99999999' 
TABS,ioos:station:wmo:42049:1,2015-07-13T00:30:00Z,28.3507,-96.0058,2.0,256.855636,14.95170893,-99999.0,'11111222,11111222,99999999' 
TABS,ioos:station:wmo:42049:1,2015-07-13T01:00:00Z,28.3507,-96.0058,2.0,262.0456309,18.86145541,-99999.0,'11111222,11111222,99999999' 
TABS,ioos:station:wmo:42049:1,2015-07-13T01:30:00Z,28.3507,-96.0058,2.0,274.1433132,19.24027547,-99999.0,'11111222,11111222,99999999' 
TABS,ioos:station:wmo:42049:1,2015-07-13T02:00:00Z,28.3507,-96.0058,2.0,269.0400373,20.30284709,-99999.0,'11111222,11111222,99999999' 
TABS,ioos:station:wmo:42049:1,2015-07-13T02:30:00Z,28.3507,-96.0058,2.0,272.7230269,22.10495193,-99999.0,'11111222,11111222,99999999' 
TABS,ioos:station:wmo:42049:1,2015-07-13T03:00:00Z,28.3507,-96.0058,2.0,278.4144477,21.11729623,-99999.0,'11111222,11111222,99999999' 
TABS,ioos:station:wmo:42049:1,2015-07-13T03:30:00Z,28.3507,-96.0058,2.0,277.3233322,18.67230034,-99999.0,'11111222,11111222,99999999' 
TABS,ioos:station:wmo:42049:1,2015-07-13T04:00:00Z,28.3507,-96.0058,2.0,278.5844795,23.38192678,-99999.0,'11111222,11111222,99999999' 
TABS,ioos:station:wmo:42049:1,2015-07-13T04:30:00Z,28.3507,-96.0058,2.0,272.9983939,22.37061689,-99999.0,'11111222,11111222,99999999' 
TABS,ioos:station:wmo:42049:1,2015-07-13T05:00:00Z,28.3507,-96.0058,2.0,271.9554869,22.86330903,-99999.0,'11111222,11111222,99999999' 
TABS,ioos:station:wmo:42049:1,2015-07-13T05:30:00Z,28.3507,-96.0058,2.0,280.0929777,21.96996586,-99999.0,'11111222,11111222,99999999' 
TABS,ioos:station:wmo:42049:1,2015-07-13T06:00:00Z,28.3507,-96.0058,2.0,284.501017,20.64773595,-99999.0,'11111222,11111222,99999999' 
TABS,ioos:station:wmo:42049:1,2015-07-13T06:30:00Z,28.3507,-96.0058,2.0,291.1981924,20.27162796,-99999.0,'11111222,11111222,99999999' 